sat.trackr.live / text

‹ back to catalog

STARLINK-30804

NORAD 58155 · 2023-166F

PAYLOAD ACTIVE UNKNOWN

§ Identity

Operator
Country
US
Launch date
2023-10-29
Launch site
AFWTR
Launch vehicle
Mass (kg)
RCS (m²)

Purposes: comms

External: N2YO · Heavens-Above · Gunter

§ Orbital elements

Epoch: 2026-09-20T19:58:41.230560Z

Period
94.01 min
Inclination
53.1592°
Eccentricity
0.0001324
Mean motion
15.31703693 rev/d
Perigee alt
469.8 km
Apogee alt
471.6 km
Semi-major
6,848.9 km
B*
5.3601e-5
RAAN
31.9802°
Arg perigee
77.7513°
Mean anomaly
282.3636°
Rev number
16,307

§ Raw data

STARLINK-308041 58155U 23166F   26263.83242165  .00001299  00000+0  53601-4 0  99912 58155  53.1592  31.9802 0001324  77.7513 282.3636 15.31703693163079

JSON: /api/v1/satellites/58155 · /tle

For live sub-satellite position, see the globe view (requires WebGL).

§ Visibility from observer

Set your observer location to see the next 7 days of passes ≥ 10°. The values pass through the URL so the page stays shareable.

No JS? Fill the form by hand. The geolocation button needs JavaScript.